RH
75 69 70 66 72 89 93 87 87 78 61 50 46 44 50 43 41 45 65 66 65 56 51 51 48 42 41 42 41 40 40 40 43 42 42 29 17 19 17 18 20 21 25 23
63 61 55 52 53 70 85 83 78 66 63 56 53 52 59 52 47 47 62 69 67 57 52 51 46 43 41 45 47 49 48 48 44 40 40 20 21 17 16 19 20 18 18 20
76 78 78 67 41 43 38 49 52 73 53 58 53 57 60 56 50 48 69 72 70 56 53 51 49 48 46 45 45 45 46 45 44 45 29 21 22 22 24 22 21 23 26 30
87 89 93 42 53 53 46 38 35 42 45 56 59 59 59 56 52 53 76 74 69 59 53 50 51 46 41 42 42 42 44 46 43 41 43 45 50 54 55 39 33 52 58 61
81 82 58 45 47 56 58 55 52 33 37 55 59 55 48 46 56 76 74 77 68 60 54 53 50 46 42 39 37 47 48 45 43 42 38 34 42 46 52 54 54 57 54 39
97 81 90 85 75 70 70 72 72 68 55 57 73 62 54 66 78 76 78 78 68 62 58 58 53 49 43 33 30 29 26 23 21 23 23 24 25 27 31 33 31 29 27 25
87 87 73 61 68 66 88 78 82 74 67 61 58 52 63 79 79 78 81 77 71 69 65 65 60 56 47 32 27 25 23 22 23 26 28 29 29 29 29 27 25 24 24 26
91 81 79 59 70 76 82 88 84 80 61 58 54 74 87 81 76 77 81 80 76 75 72 72 71 64 55 38 30 26 23 23 26 28 30 30 29 28 27 26 26 27 27 24
63 58 60 70 67 63 75 91 92 94 94 93 94 94 90 84 80 80 81 84 87 86 83 83 78 73 64 50 34 28 25 25 28 30 31 31 31 29 28 29 30 29 27 26
80 69 71 70 65 65 67 87 95 96 94 99 99 98 97 99 95 89 90 95 95 97 98 95 83 80 75 65 46 33 27 26 28 31 32 32 32 31 32 34 34 33 32 33
78 72 68 61 59 62 67 72 70 78 92 98 97 97 96 91 96 96 93 94 98 100 99 98 95 86 83 84 69 47 33 28 28 30 32 33 33 34 36 37 36 37 38 39
80 71 64 63 62 66 66 70 78 82 86 89 89 89 89 83 82 85 94 93 90 95 100 99 99 99 90 93 91 74 51 34 28 29 32 33 34 36 37 37 35 36 38 40
78 84 74 61 73 76 80 82 81 83 83 82 79 74 70 66 66 71 75 77 85 93 100 100 100 99 100 100 100 99 96 69 35 28 31 34 34 36 37 35 34 36 38 37
94 92 76 61 76 77 76 76 77 75 73 70 66 62 62 65 66 61 61 67 81 86 90 98 99 99 99 98 100 97 96 94 63 34 28 32 35 36 37 36 36 37 36 36
96 92 84 82 84 73 74 74 70 72 70 61 57 56 57 66 72 71 70 71 71 82 86 89 96 99 98 98 93 99 99 95 94 69 34 29 33 36 37 37 36 36 35 36
99 98 96 83 75 72 70 70 75 68 61 58 55 49 49 46 52 76 79 87 86 84 89 94 95 100 99 99 100 99 94 99 97 97 72 33 30 35 38 38 37 36 36 37
98 92 82 70 73 74 74 71 66 59 56 54 50 48 50 52 59 72 82 96 100 100 100 100 99 98 99 100 98 97 100 99 99 97 97 80 33 33 37 39 38 38 38 38
97 90 88 83 80 76 70 64 60 59 57 58 61 61 62 63 62 66 82 88 92 98 99 100 100 98 99 100 100 98 99 100 100 98 97 97 52 39 35 39 40 44 51 40
99 96 94 88 85 78 75 76 76 78 76 84 95 96 94 92 82 82 76 82 95 90 96 99 98 98 100 99 97 97 99 100 99 98 97 97 85 68 35 38 44 78 68 42
97 98 100 97 94 92 89 87 86 89 86 84 87 92 98 99 98 93 89 88 90 93 96 83 90 95 98 98 97 98 98 98 98 98 97 97 96 79 41 37 59 88 55 43
97 97 98 97 91 86 79 72 62 50 43 46 47 60 75 80 83 88 81 85 97 94 92 96 92 95 99 99 98 98 98 98 98 97 97 97 96 68 34 43 72 93 47 44
97 97 97 96 91 83 78 74 67 68 63 46 24 12 10 22 41 52 55 82 83 91 98 100 100 99 98 98 98 99 98 97 97 96 97 96 94 55 36 57 89 91 43 43
97 97 97 95 88 85 81 79 78 76 69 62 38 21 9 4 3 6 21 38 76 83 90 93 94 98 98 97 98 98 97 97 97 96 96 96 96 74 77 89 95 91 47 47
98 98 98 97 98 93 89 90 83 79 70 57 31 16 10 5 3 2 3 10 31 70 82 90 95 97 96 97 97 97 97 96 96 96 98 98 96 94 89 91 95 95 79 93
96 96 96 97 96 97 96 89 78 70 49 26 15 8 6 4 4 3 2 2 6 27 61 85 88 96 98 97 97 97 96 96 96 97 97 96 95 94 95 96 96 96 96 95
97 97 96 96 96 92 79 59 40 25 17 13 10 7 6 5 4 4 3 3 2 3 18 63 91 88 95 97 96 97 97 96 97 97 97 96 96 96 96 96 96 95 94 94
95 96 94 92 76 51 31 26 23 20 16 12 10 8 6 5 4 4 3 3 2 2 2 7 66 100 93 89 91 96 98 96 96 97 96 96 97 95 95 94 94 93 94 94
Wind_Speed
10 7 8 9 21 26 31 30 18 25 17 18 12 14 15 16 15 12 11 11 12 12 13 12 13 14 14 15 16 18 21 21 18 17 18 18 16 13 10 9 10 12 13 15
13 13 12 13 13 20 33 32 32 20 19 22 16 20 20 18 15 12 13 12 12 11 9 10 11 12 11 10 10 10 11 13 13 13 14 13 10 10 9 9 11 13 13 15
4 6 9 16 25 28 25 31 35 37 35 16 23 25 23 23 18 17 15 14 12 10 10 9 8 8 7 7 7 8 9 10 10 8 7 9 10 11 11 10 9 11 12 14
4 5 2 5 5 6 13 23 28 26 23 28 26 25 26 26 24 20 16 13 11 10 9 8 7 8 6 4 7 6 3 3 2 2 4 5 6 8 8 5 7 9 8 6
3 7 14 15 11 12 11 12 15 25 23 17 25 27 29 24 20 17 14 12 10 8 7 7 6 5 4 2 3 5 7 6 4 5 6 7 8 10 10 8 8 9 8 7
6 3 4 2 2 6 8 13 9 11 20 27 26 25 16 17 16 14 13 11 9 7 6 7 5 5 4 3 3 3 3 3 4 7 8 9 10 10 9 8 7 7 6 8
14 7 11 11 6 8 6 4 4 6 12 23 29 19 15 14 13 11 12 10 8 7 7 8 6 7 4 1 2 3 1 1 4 6 6 6 6 7 6 6 5 5 6 7
16 7 10 4 6 8 6 4 1 1 6 14 16 14 13 13 13 12 13 10 9 8 8 9 9 8 5 2 0 0 1 1 2 3 3 3 4 4 4 4 4 5 7 9
11 6 5 5 7 8 10 5 3 3 6 10 12 14 14 11 9 11 14 13 10 10 9 9 9 9 7 5 3 2 2 2 1 1 1 2 3 3 3 5 6 8 9 10
11 15 16 15 11 10 8 10 8 5 7 10 12 13 10 19 17 6 11 14 13 11 11 11 8 9 10 8 5 4 5 5 4 4 4 4 4 5 5 6 8 9 10 12
25 23 17 14 11 9 11 10 13 11 11 10 10 8 9 10 11 10 5 7 12 14 13 13 13 10 12 10 7 6 7 7 7 7 6 6 7 7 7 8 9 11 12 14
25 16 13 11 13 14 14 11 11 12 13 14 14 16 17 18 17 15 16 13 10 13 14 13 14 12 9 7 7 7 9 10 10 9 8 8 9 9 9 10 11 12 14 16
29 26 22 16 12 9 10 12 14 17 19 20 21 22 22 23 23 22 21 19 17 14 16 17 15 16 13 10 12 11 10 12 11 12 11 11 11 11 11 12 12 14 16 18
30 27 24 20 17 13 14 15 17 18 19 19 21 23 22 21 21 22 22 22 23 21 19 17 17 16 13 14 14 12 12 13 13 14 13 13 13 13 13 13 14 15 17 19
26 22 23 22 20 20 19 19 20 18 19 17 16 17 19 20 20 20 21 22 25 25 22 20 19 20 18 19 17 16 19 15 15 15 16 16 15 15 15 15 15 16 18 20
26 28 17 18 17 17 18 18 18 20 19 18 19 19 18 19 21 20 19 19 21 22 24 23 22 22 26 21 22 22 19 23 20 20 18 18 18 17 17 17 16 17 19 21
5 12 15 15 14 14 15 16 18 19 20 21 23 23 22 20 19 20 20 18 18 19 22 23 23 24 22 22 22 22 24 23 26 24 22 20 20 19 18 18 18 18 20 22
9 9 8 8 10 13 14 16 18 19 20 22 22 24 25 25 23 22 23 18 17 21 23 22 25 26 25 25 25 24 23 23 25 25 25 22 20 20 20 19 18 18 22 24
14 11 5 6 6 5 4 5 7 10 12 12 12 14 15 20 21 21 22 25 25 20 24 25 29 25 27 28 24 21 24 26 26 25 26 25 21 21 21 20 19 23 23 23
15 6 7 6 5 6 8 8 8 7 7 8 10 11 9 9 14 17 20 22 23 24 26 29 26 23 24 25 25 25 27 26 27 27 29 28 24 20 21 21 21 24 23 23
13 10 15 13 10 7 3 1 3 6 7 8 9 9 9 9 10 10 11 17 25 25 25 23 23 26 26 27 27 29 27 26 27 29 28 26 21 19 22 22 23 25 23 23
14 16 13 13 9 6 3 3 6 10 12 13 13 14 14 14 13 15 17 15 13 18 27 27 25 25 27 27 25 27 28 26 27 29 27 25 21 21 22 23 25 22 23 23
15 21 18 15 12 10 9 8 11 15 17 18 17 16 15 15 16 17 19 17 18 17 15 21 27 29 29 27 27 25 27 27 27 26 26 27 23 23 27 28 25 22 23 24
15 23 22 17 15 14 13 15 18 19 19 19 19 19 17 17 16 16 16 17 16 16 16 15 17 21 24 27 26 25 24 21 20 18 22 25 25 22 23 26 28 28 28 29
9 11 13 15 14 13 14 16 19 20 20 20 19 17 16 15 15 16 16 16 16 16 15 14 14 14 16 17 18 19 17 17 18 19 22 25 25 26 27 26 29 28 26 24
12 12 12 10 10 12 15 17 18 19 19 19 18 18 17 17 17 16 16 16 15 15 16 15 11 10 10 13 14 15 17 18 18 20 23 23 22 20 20 21 23 23 21 23
16 16 12 9 12 14 15 16 16 17 17 18 18 18 18 18 18 17 16 15 15 14 15 15 13 10 9 9 10 13 15 16 16 18 17 16 18 18 19 20 21 22 22 23
Wind_Direction
211 218 219 232 227 216 217 223 217 238 224 214 243 240 232 228 230 248 259 268 281 286 291 297 298 304 305 293 282 275 271 270 268 275 283 278 272 267 268 281 293 295 292 291
231 242 250 248 236 225 228 233 235 223 220 230 228 220 221 238 247 266 273 273 284 284 294 313 324 318 315 301 288 279 275 274 275 276 278 273 271 273 280 286 288 288 294 300
214 223 256 269 252 240 236 235 235 234 234 224 203 211 225 240 256 275 272 273 280 278 288 298 332 348 348 345 327 298 284 279 277 282 287 280 277 278 280 275 284 297 302 300
195 198 245 253 267 279 249 250 244 243 245 227 217 223 235 248 259 264 262 265 269 269 280 292 296 306 342 1 26 14 8 23 16 328 296 296 290 283 278 281 292 301 298 318
210 234 284 275 282 269 267 267 249 236 228 226 215 232 236 238 243 248 255 251 257 259 270 283 298 308 310 21 27 51 57 56 77 98 86 70 63 63 79 93 85 80 69 42
203 245 253 225 307 298 252 272 245 238 219 209 215 227 237 226 237 245 234 244 243 251 267 280 280 289 290 36 68 64 51 76 86 80 73 65 62 63 65 69 60 48 32 24
233 250 274 253 280 280 213 274 266 248 214 205 218 225 224 226 234 241 232 240 240 253 265 270 281 274 277 253 91 81 64 78 74 69 63 58 54 53 47 43 37 24 12 3
226 244 263 246 238 227 241 261 294 145 182 201 203 207 220 235 241 241 229 232 236 249 260 268 264 266 267 265 37 163 262 56 62 56 48 34 30 25 17 2 349 345 350 347
213 240 262 236 279 291 255 262 250 194 188 188 198 209 219 226 236 236 224 227 238 249 262 274 267 259 265 254 254 266 265 260 278 298 321 325 328 323 328 331 330 335 336 336
245 252 260 267 270 290 274 243 219 244 257 243 244 253 276 257 219 197 222 231 241 252 260 272 279 261 256 254 249 262 263 264 266 273 281 285 291 296 306 316 321 323 325 325
257 257 256 259 271 269 257 251 241 244 238 245 252 260 272 288 269 223 219 254 252 251 257 266 270 274 251 252 255 262 269 267 266 266 275 283 283 289 298 306 313 317 320 324
250 271 266 265 253 247 240 243 240 236 243 252 255 262 266 268 267 266 256 249 263 261 254 252 270 286 271 251 265 262 268 267 267 269 270 275 283 289 295 302 309 313 320 324
261 265 269 271 262 258 243 244 246 247 252 258 264 265 268 267 263 257 253 254 254 254 245 250 258 276 291 289 275 265 276 269 270 269 269 274 279 284 290 297 305 312 319 324
231 242 254 257 260 257 256 255 254 259 260 264 268 271 269 266 264 260 254 248 243 246 249 246 246 254 259 267 270 282 291 279 272 273 271 271 274 277 283 292 300 308 316 322
236 241 250 256 250 260 260 259 259 260 269 268 271 273 271 265 266 263 254 247 245 245 247 252 247 238 245 257 268 273 275 277 272 271 271 269 271 274 279 286 295 305 313 321
212 229 235 236 240 249 255 259 254 266 263 269 278 275 276 269 261 261 262 251 250 249 244 243 243 247 245 246 254 266 271 277 268 270 267 267 268 272 276 283 291 302 313 319
209 233 241 246 250 255 258 259 260 263 269 271 275 274 269 266 261 255 258 262 247 249 250 247 245 244 245 248 258 261 275 280 267 268 263 263 266 269 273 280 289 301 310 316
181 200 208 235 257 263 263 264 269 271 272 275 276 272 265 256 253 253 252 259 260 254 251 251 249 244 241 246 249 260 262 271 263 264 266 261 260 267 271 276 285 299 306 312
183 185 229 255 257 260 261 275 283 285 284 293 306 305 279 251 247 251 254 253 254 263 253 251 246 252 247 248 255 258 261 264 262 261 261 260 255 261 268 273 281 291 299 307
193 194 189 176 144 116 100 81 63 47 35 18 10 11 350 274 258 258 263 261 260 258 258 260 259 257 255 247 250 254 255 258 263 262 260 258 255 253 265 269 279 289 296 302
222 212 184 165 153 147 145 54 9 353 331 321 321 331 329 328 313 313 317 282 261 255 253 259 256 254 252 253 257 253 255 262 259 254 253 251 253 258 262 266 280 286 293 299
230 208 189 176 184 199 219 306 328 335 334 332 323 316 301 283 283 286 292 299 312 276 258 256 257 254 255 252 255 254 257 259 254 251 253 257 252 256 261 266 281 284 292 296
220 206 208 206 204 216 230 261 295 313 321 322 321 318 313 306 298 287 283 289 293 314 297 265 257 257 254 256 257 260 258 256 249 251 261 267 253 250 254 267 276 284 288 292
243 226 218 222 226 235 246 265 289 303 309 312 313 312 309 307 305 303 293 285 288 286 304 313 282 266 260 256 254 258 258 246 243 258 277 269 259 263 267 267 272 279 278 288
273 256 244 238 260 247 256 280 292 300 304 307 310 311 310 307 305 306 304 299 287 282 282 296 309 291 271 261 258 255 240 237 244 264 284 284 272 266 277 279 284 286 290 294
261 259 255 256 269 281 287 290 294 299 302 304 306 308 308 308 306 305 304 302 299 292 280 273 288 299 282 259 245 236 232 244 257 277 290 291 293 292 283 284 285 288 293 295
268 263 258 279 285 283 287 294 298 300 302 304 305 305 304 305 304 303 303 302 302 298 293 281 266 274 274 264 247 241 246 252 262 272 278 285 290 292 293 288 288 289 293 295